#timestamp,LO_Frequency,Hit,StdDev 
1589364015.6,286046998.4,N
1589364035.5,286046997.0,N
1589364055.3,286046998.1,N
1589364075.2,286047002.3,N
1589364095.9,286047000.3,N
1589364115.7,286047000.2,N
1589364135.6,286047001.0,N
1589364155.7,286047001.2,N
1589364175.6,286046999.5,N
1589364195.4,286046996.9,N
1589364215.2,286046997.8,N
1589364235.1,286046996.3,N
1589364236.0,286046996.3,N
1589364255.8,286046993.5,Y
1589364275.7,286046994.0,P
1589364295.5,286046994.5,N
1589364315.3,286046993.8,N
1589364335.2,286046996.0,N
1589364355.0,286046997.9,N
1589364355.9,286046997.9,N
1589364375.8,286046995.1,N
1589364395.6,286046993.5,Y
1589364415.4,286046996.5,P
1589364435.3,286046996.6,P
1589364455.1,286046997.7,P
1589364475.8,286046997.3,Y
1589364495.7,286047011.9,P
1589364515.5,286047001.0,N
1589364535.4,286047000.6,N
1589364555.2,286046999.4,N
1589364575.0,286047001.2,N
1589364575.9,286047001.2,N
1589364595.8,286047000.6,N
1589364615.6,286047001.2,N
1589364635.5,286046998.8,N
1589364655.3,286046999.0,N
1589364675.1,286046996.7,N
1589364695.9,286046996.8,N
1589364715.7,286046997.1,N
1589364735.5,286046995.2,N
1589364755.4,286046997.1,N
1589364775.2,286046996.7,N
1589364795.1,286046996.7,N
1589364796.0,286046996.7,N
1589364815.8,286046998.1,N
1589364835.6,286047000.8,N
1589364855.5,286046999.9,N
1589364875.3,286047000.2,N
1589364895.1,286047002.7,N
1589364915.9,286047002.8,N
1589364935.7,286047000.6,N
1589364955.6,286047002.8,N
1589364975.4,286046999.0,N
1589364995.2,286047001.2,N
1589365015.1,286047000.6,N
1589365016.0,286047000.6,N
1589365035.8,286047002.3,N
1589365055.7,286047001.2,N
1589365075.5,286046998.5,N
1589365095.3,286046998.9,N
1589365115.2,286047001.2,N
1589365135.0,286046995.3,N
1589365135.9,286046995.3,N
1589365155.7,286046994.9,N
1589365175.6,286046997.2,N
1589365195.4,286046998.6,N
1589365215.3,286046998.6,N
1589365235.1,286046998.5,N
1589365255.8,286046998.9,N
1589365275.7,286047000.2,N
1589365295.5,286047004.1,N
1589365315.4,286047001.5,N
1589365335.2,286047003.9,N
1589365355.0,286047001.3,N
1589365355.9,286047001.3,N
1589365375.8,286047000.5,N
1589365395.6,286046998.5,N
1589365415.4,286046999.2,N
1589365435.3,286046998.6,N
1589365455.1,286047000.2,N
1589365475.9,286047000.1,N
1589365495.7,286046999.7,N
1589365515.5,286047002.3,N
1589365535.4,286047002.4,N
1589365555.2,286047002.3,N
1589365575.1,286047000.4,N
1589365576.0,286047000.4,N
1589365595.8,286047003.9,N
1589365615.6,286047003.8,N
1589365635.5,286047003.2,N
1589365655.3,286047005.9,N
1589365675.2,286047004.1,N
1589365695.0,286047003.6,N
1589365695.9,286047003.6,N
1589365715.8,286047004.4,N
1589365735.6,286047001.9,N
1589365755.4,286047002.3,N
1589365775.3,286047003.8,N
1589365795.1,286047003.5,N
1589365815.8,286047002.9,N
1589365835.7,286047003.8,N
1589365855.5,286047003.7,N
1589365875.4,286047003.5,N
1589365895.2,286047003.5,N
1589365915.0,286047005.2,N
1589365915.9,286047005.2,N
1589365935.8,286047005.7,N
1589365955.6,286047005.8,Y
1589365975.5,286047000.7,P
1589365995.3,286047000.5,N
1589366015.1,286046998.2,N
1589366035.9,286046998.8,N
1589366055.7,286047001.5,N
1589366075.6,286047000.5,N
1589366095.4,286047001.0,N
1589366115.2,286047000.4,N
1589366135.1,286047000.4,N
1589366136.0,286047000.4,N
1589366155.8,286047002.6,N
1589366175.7,286047000.1,N
1589366195.5,286047000.6,N
1589366215.3,286047002.5,N
1589366235.2,286047002.1,N
1589366255.0,286047000.1,N
1589366255.9,286047000.1,N
1589366275.7,286047000.3,N
1589366295.6,286047001.3,N
1589366315.4,286047002.2,N
1589366335.3,286047001.0,N
1589366355.1,286047001.7,N
1589366375.8,286047003.3,N
1589366395.7,286047005.6,Y
1589366415.5,286047003.9,P
1589366435.4,286047001.2,N
1589366455.2,286047000.4,N
1589366475.0,286047000.1,N
1589366475.9,286047000.1,N
1589366495.8,286047003.2,N
1589366515.6,286047001.4,N
1589366535.5,286047004.2,Y
1589366555.3,286047001.8,P
1589366575.1,286047002.1,P
1589366595.9,286046999.9,N
1589366615.7,286047000.1,N
1589366635.5,286047002.3,N
1589366655.4,286047001.7,N
1589366675.2,286047001.3,N
1589366695.1,286047001.7,N
1589366696.0,286047001.7,N
1589366715.8,286047001.4,N
1589366735.7,286047004.4,Y
1589366755.5,286047001.6,P
1589366775.3,286047002.6,P
1589366795.2,286047004.0,P
1589366815.0,286047003.7,Y
1589366815.9,286047003.7,P
1589366835.8,286046998.4,N
1589366855.6,286046997.1,N
1589366875.4,286046999.1,N
1589366895.3,286046999.4,N
1589366915.1,286046997.4,N
1589366935.8,286046996.7,N
1589366955.7,286046998.1,N
1589366975.5,286046999.7,N
1589366995.4,286047000.6,N
1589367015.2,286046998.4,N
1589367035.0,286046999.3,N
1589367035.9,286046999.3,N
1589367055.8,286046997.6,N
1589367075.6,286046996.7,N
1589367095.5,286046998.8,N
1589367115.3,286046997.9,N
1589367135.1,286046995.4,N
1589367155.9,286046997.3,N
1589367175.7,286046998.4,N
1589367195.5,286046997.0,N
1589367215.4,286046995.2,N
1589367235.2,286046997.1,N
1589367255.1,286046997.9,N
1589367256.0,286046997.9,N
1589367275.8,286046995.4,N
1589367295.6,286046995.0,N
1589367315.5,286046993.4,Y
1589367335.3,286046999.2,P
1589367355.2,286046999.1,N
1589367375.9,286046999.3,N
1589367395.7,286046998.3,Y
1589367415.6,286046999.4,P
1589367435.4,286046998.4,P
1589367455.2,286046999.3,N
1589367475.1,286047000.2,N
1589367476.0,286047000.2,N
1589367495.8,286047001.0,N
1589367515.7,286046997.0,Y
1589367535.5,286047001.1,P
1589367555.4,286046998.3,N
1589367575.2,286046998.4,N
1589367595.0,286046998.1,N
1589367595.9,286046998.1,N
